Cedar Rapids, IA

11:59 PM CST on November 17, 2019 (GMT -0600)
The Eastern Iowa Airport

Weather History for KCID - August, 2019

Change the Weather History Date:

Tuesday, August 20, 2019

  Actual Average Record
Temperature  
Mean Temperature 74 °F 71 °F  
Max Temperature 82 °F 81 °F 100 °F (1947)
Min Temperature 65 °F 60 °F 38 °F (1950)
Degree Days  
Heating Degree Days 0 1  
Month to date heating degree days 0 1  
Since 1 June heating degree days 11 34  
Since 1 July heating degree days 0 5  
Cooling Degree Days 9 6  
Month to date cooling degree days 137 139  
Year to date cooling degree days 639 606  
Since 1 June cooling degree days 611 557  
Growing Degree Days 22 (Base 50)    
Moisture  
Dew Point 67 °F    
Average Humidity 85    
Maximum Humidity 100    
Minimum Humidity 69    
Precipitation  
Precipitation 1.77 in 0.15 in 2.42 in (1969)
Month to date precipitation 4.91 2.93  
Year to date precipitation 27.50 23.75  
Sea Level Pressure  
Sea Level Pressure 29.98 in    
Wind  
Wind Speed 7 mph (NE)    
Max Wind Speed 38 mph    
Max Gust Speed 53 mph    
Visibility 7 miles    
Events Rain , Thunderstorm    
T = Trace of Precipitation, MM = Missing Value Source: NWS Daily Summary

Daily Weather History Graph

Daily Weather History Graph

Search for Another Location

Airport or City:

Astronomy

Aug. 20, 2019 Rise Set
Actual Time 6:19 AM CDT 7:59 PM CDT
Civil Twilight 5:50 AM CDT 8:29 PM CDT
Nautical Twilight 5:14 AM CDT 9:05 PM CDT
Astronomical Twilight 4:36 AM CDT 9:43 PM CDT
Moon 10:44 PM CDT (8/20) 11:02 AM CDT (8/20)
Length of Visible Light 14h 38m
Length of Day
13h 39m
Waning Gibbous, 77% of the Moon is Illuminated
Aug 20
Waning Gibbous
Aug 23
Last Quarter
Aug 30
New
Sep 5
First Quarter
Sep 13
Full

Hourly Weather History & Observations

Time (CDT) Temp. Heat Index Dew Point Humidity Pressure Visibility Wind Dir Wind Speed Gust Speed Precip Events Conditions
12:52 AM 68.0 °F - 66.9 °F 96% 30.01 in 9.0 mi Calm Calm - N/A   Clear
1:52 AM 66.9 °F - 66.9 °F 100% 30.01 in 9.0 mi Calm Calm - N/A   Clear
2:52 AM 68.0 °F - 66.9 °F 96% 29.98 in 9.0 mi East 4.6 mph - N/A   Clear
3:52 AM 69.1 °F - 68.0 °F 96% 29.96 in 10.0 mi East 6.9 mph - N/A   Clear
4:41 AM 68.0 °F - 68.0 °F 100% 29.91 in 9.0 mi East 13.8 mph - N/A Thunderstorm Mostly Cloudy
4:52 AM 69.1 °F - 68.0 °F 96% 29.93 in 8.0 mi ESE 3.5 mph - 0.01 in Rain Light Rain
5:08 AM 69.1 °F - 68.0 °F 96% 29.93 in 10.0 mi ESE 8.1 mph - 0.00 in Rain , Thunderstorm Light Thunderstorms and Rain
5:52 AM 70.0 °F - 69.1 °F 97% 29.96 in 8.0 mi NW 8.1 mph - 0.03 in Rain , Thunderstorm Light Thunderstorms and Rain
6:06 AM 70.0 °F - 70.0 °F 100% 30.00 in 1.8 mi NNW 17.3 mph 25.3 mph 0.17 in Rain , Thunderstorm Heavy Thunderstorms and Rain
6:16 AM 71.1 °F - 71.1 °F 100% 29.96 in 0.8 mi NNE 13.8 mph 20.7 mph 0.53 in Rain , Thunderstorm Heavy Thunderstorms and Rain
6:22 AM 71.1 °F - 71.1 °F 100% 29.96 in 1.0 mi North 20.7 mph 29.9 mph 0.57 in Rain , Thunderstorm Heavy Thunderstorms and Rain
6:29 AM 66.0 °F - 64.0 °F 93% 30.01 in 1.0 mi NW 36.8 mph 52.9 mph 0.74 in Rain , Thunderstorm Heavy Thunderstorms and Rain
6:43 AM 66.9 °F - 64.0 °F 90% 30.00 in 2.0 mi North 19.6 mph 36.8 mph 1.02 in Rain , Thunderstorm Thunderstorms and Rain
6:50 AM 68.0 °F - 64.4 °F 88% 30.01 in 8.0 mi NE 19.6 mph 31.1 mph 1.03 in Rain , Thunderstorm Thunderstorms and Rain
7:01 AM 66.9 °F - 64.9 °F 93% 30.02 in 8.0 mi ENE 18.4 mph - 0.01 in Rain , Thunderstorm Thunderstorms and Rain
7:14 AM 66.2 °F - 64.4 °F 94% 30.02 in 4.0 mi NE 12.7 mph 23.0 mph N/A Rain , Thunderstorm Rain
7:23 AM 66.9 °F - 64.9 °F 93% 30.02 in 2.0 mi NNE 13.8 mph - 0.11 in Rain , Thunderstorm Heavy Thunderstorms and Rain
7:42 AM 66.0 °F - 64.9 °F 96% 30.06 in 1.2 mi NW 10.4 mph - 0.37 in Rain , Thunderstorm Heavy Thunderstorms and Rain
7:52 AM 66.0 °F - 64.9 °F 96% 30.05 in 1.8 mi WNW 11.5 mph - 0.46 in Rain , Thunderstorm Heavy Thunderstorms and Rain
7:57 AM 66.0 °F - 64.9 °F 96% 30.05 in 3.0 mi NW 13.8 mph - 0.01 in Rain , Thunderstorm Thunderstorms and Rain
8:17 AM 64.9 °F - 64.9 °F 100% 30.07 in 5.0 mi West 8.1 mph - 0.04 in Rain , Thunderstorm Rain
8:38 AM 66.2 °F - 66.2 °F 100% 30.08 in 2.5 mi South 6.9 mph - N/A Rain Heavy Rain
8:45 AM 66.0 °F - 66.0 °F 100% 30.06 in 3.0 mi ESE 9.2 mph - 0.16 in Rain Heavy Rain
8:52 AM 66.0 °F - 66.0 °F 100% 30.02 in 3.0 mi ENE 15.0 mph - 0.18 in Rain , Thunderstorm Rain
9:06 AM 66.0 °F - 66.0 °F 100% 29.96 in 3.0 mi NNE 21.9 mph 28.8 mph 0.04 in Rain , Thunderstorm Rain
9:52 AM 70.0 °F - 63.0 °F 78% 29.90 in 10.0 mi East 13.8 mph 21.9 mph 0.06 in Thunderstorm Scattered Clouds
10:05 AM 68.0 °F - 64.9 °F 90% 29.93 in 10.0 mi South 9.2 mph 24.2 mph N/A   Partly Cloudy
10:52 AM 69.1 °F - 66.9 °F 93% 29.92 in 10.0 mi SW 17.3 mph - N/A   Clear
11:52 AM 72.0 °F - 68.0 °F 87% 29.89 in 10.0 mi SSW 10.4 mph - N/A   Partly Cloudy
12:52 PM 75.9 °F - 66.9 °F 74% 29.95 in 10.0 mi NNE 4.6 mph - N/A   Clear
1:52 PM 79.0 °F - 69.1 °F 72% 30.01 in 10.0 mi North 3.5 mph - N/A   Clear
2:52 PM 81.0 °F 84.1 °F 69.1 °F 67% 29.99 in 10.0 mi North 8.1 mph - N/A   Clear
3:52 PM 81.0 °F 84.1 °F 69.1 °F 67% 29.94 in 10.0 mi SW 5.8 mph - N/A   Clear
4:52 PM 81.0 °F 84.4 °F 70.0 °F 69% 29.91 in 10.0 mi Calm Calm - N/A   Clear
5:52 PM 81.0 °F 84.9 °F 71.1 °F 72% 29.90 in 10.0 mi NW 5.8 mph - N/A   Clear
6:52 PM 80.1 °F 83.6 °F 71.1 °F 74% 29.91 in 10.0 mi Calm Calm - N/A   Clear
7:52 PM 75.9 °F - 73.0 °F 91% 29.93 in 10.0 mi Calm Calm - N/A   Clear
8:52 PM 72.0 °F - 70.0 °F 93% 29.96 in 10.0 mi East 4.6 mph - N/A   Clear
9:52 PM 72.0 °F - 70.0 °F 93% 29.98 in 10.0 mi ESE 3.5 mph - N/A   Clear
10:52 PM 70.0 °F - 70.0 °F 100% 29.98 in 10.0 mi South 4.6 mph - N/A   Clear
11:52 PM 69.1 °F - 69.1 °F 100% 29.98 in 10.0 mi South 3.5 mph - N/A   Clear